Flag for Czech Republic Weather past 2 weeks in Ostrava, Czech Republic

Now
83 °F

Passing clouds.


Feels Like: 82 °F
Forecast: 60 / 86 °F
Wind: N/A

Location: Ostrava / Mosnov

Current Time: Jul 3, 2015 at 7:23:37 PM

Latest Report: Jul 3, 2015 at 6:00 PM


Visibility: 22 mi

Pressure: 30.27 "Hg

Humidity: 32%

Dew point: 51 °F

Location of OstravaLocation

Historic Weather in Ostrava — Graph

°F

Ostrava temperature yesterday

Maximum temperature yesterday: 80 °F (at 3:00 PM)
Minimum temperature yesterday: 55 °F (at 5:00 AM)
Average temperature yesterday: 69 °F

Past Weeks' High & Low Weather Summary

 TemperatureHumidityPressure
High84 °F (Jul 3, 5:00 PM)99% (Jun 29, 7:00 AM)30.36 "Hg (Jun 29, 7:00 AM)
Low44 °F (Jun 22, 5:00 AM)32% (Jul 3, 6:00 PM)29.72 "Hg (Jun 23, 5:00 AM)
Average61 °F71%30.08 "Hg
* Reported Jun 18 6:00 PM — Jul 3 6:00 PM, Ostrava, Weather by CustomWeather, © 2015

Note: Actual official high and low records may vary slightly from our data, if they occured in-between our weather recording intervals... More about our weather records

Advertising

Ostrava weather history for previous 24 hours

 ConditionsComfort  
Time TempWeatherWind HumidityBarometerVisibility
6:00 PM
Fri, Jul 3
83 °FPassing clouds.N/A32%30.27 "Hg22 mi
5:00 PM84 °FPassing clouds.N/A33%30.28 "Hg22 mi
4:00 PM83 °FScattered clouds.N/A35%30.29 "Hg25 mi
3:00 PM82 °FScattered clouds.N/A39%30.30 "Hg25 mi
2:00 PM81 °FScattered clouds.3 mph37%30.31 "Hg25 mi
1:00 PM80 °FScattered clouds.N/A37%30.32 "Hg25 mi
12:00 PM79 °FPassing clouds.N/A38%30.32 "Hg25 mi
11:00 AM77 °FPassing clouds.N/A45%30.34 "Hg22 mi
10:00 AM73 °FSunny.N/A50%30.34 "Hg22 mi
9:00 AM70 °FSunny.N/A56%30.34 "Hg22 mi
8:00 AM65 °FSunny.N/A64%30.35 "Hg19 mi
7:00 AM60 °FSunny.1 mph75%30.36 "Hg19 mi
6:00 AM56 °FSunny.2 mph86%30.35 "Hg22 mi
4:00 AM56 °FClear.N/A88%30.33 "Hg19 mi
3:00 AM57 °FClear.N/A84%30.32 "Hg12 mi
2:11 AM60 °FClear.N/A75%30.32 "Hg12 mi
1:00 AM62 °FClear.1 mph70%30.32 "Hg12 mi
12:00 AM61 °FClear.2 mph67%30.31 "Hg12 mi
11:00 PM
Thu, Jul 2
65 °FClear.2 mph61%30.31 "Hg12 mi
10:00 PM67 °FClear.3 mph56%30.29 "Hg25 mi
9:00 PM67 °FClear.3 mph56%30.27 "Hg25 mi
8:00 PM74 °FSunny.3 mph40%30.25 "Hg25 mi
7:00 PM78 °FSunny.6 mph35%30.23 "Hg25 mi
Weather by CustomWeather, © 2015

See weather overviewHow to use our weather pages